This is the latest recevied weather packets stored in our database for station/object SR4DIG-13. If no packets are shown the sender has not sent any weather packets the latest 10 day(s).
| Time | Temp. | Humidity | Pressure | Rain* | Wind** | Luminosity | Snow |
|---|---|---|---|---|---|---|---|
| 1777803808 | 27.78° C | 23% | 1016.1 hPa | 0 mm | - | - | - |
| 1777803481 | 28.33° C | 23% | 1016.2 hPa | 0 mm | - | - | - |
| 1777803179 | 28.33° C | 23% | 1016.2 hPa | 0 mm | - | - | - |
| 1777802878 | 28.33° C | 23% | 1016.2 hPa | 0 mm | - | - | - |
| 1777802578 | 27.78° C | 25% | 1016.2 hPa | 0 mm | - | - | - |
| 1777801675 | 27.78° C | 24% | 1016.4 hPa | 0 mm | - | - | - |
| 1777800819 | 27.22° C | 26% | 1016.7 hPa | 0 mm | - | - | - |
| 1777800519 | 27.22° C | 26% | 1016.7 hPa | 0 mm | - | - | - |
| 1777800218 | 26.67° C | 26% | 1016.8 hPa | 0 mm | - | - | - |
| 1777799917 | 26.67° C | 26% | 1016.8 hPa | 0 mm | - | - | - |
| 1777799617 | 26.67° C | 26% | 1016.8 hPa | 0 mm | - | - | - |
| 1777799315 | 26.11° C | 26% | 1016.9 hPa | 0 mm | - | - | - |
| 1777799014 | 26.11° C | 27% | 1016.8 hPa | 0 mm | - | - | - |
| 1777798713 | 26.11° C | 27% | 1016.9 hPa | 0 mm | - | - | - |
| 1777798412 | 26.11° C | 27% | 1016.9 hPa | 0 mm | - | - | - |
| 1777797180 | 26.11° C | 28% | 1017.1 hPa | 0 mm | - | - | - |
| 1777796879 | 26.11° C | 28% | 1017 hPa | 0 mm | - | - | - |
| 1777796578 | 26.11° C | 29% | 1017.1 hPa | 0 mm | - | - | - |
| 1777796277 | 26.11° C | 29% | 1017.2 hPa | 0 mm | - | - | - |
| 1777795976 | 26.11° C | 29% | 1017.1 hPa | 0 mm | - | - | - |
| 1777795675 | 25.56° C | 30% | 1017.2 hPa | 0 mm | - | - | - |
| 1777795374 | 25.56° C | 30% | 1017.2 hPa | 0 mm | - | - | - |
| 1777795073 | 25.56° C | 31% | 1017.2 hPa | 0 mm | - | - | - |
| 1777794772 | 25.56° C | 31% | 1017.2 hPa | 0 mm | - | - | - |
| 1777794471 | 25° C | 31% | 1017.1 hPa | 0 mm | - | - | - |
* Rain since midnight (hover to see other rain measurements)
** Current wind speed in m/s (hover to see current wind gust speed)